Simultaneous Nadir Overpasses (SNOs) Predictions

Prediction of SNOs between METOP-A and NOAA-19 Satellite Orbit:

Table of predicted SNOs for the next 14.0 days since TLE Epoch: 7/9/2016
Index Date (METOP-A) Time (METOP-A) Lat,Lon (METOP-A) SZA (METOP-A ) Date (NOAA-19) Time (NOAA-19) Lat,Lon (NOAA-19) SZA (NOAA-19 ) Distance(km) Time Diff (sec)
1 07/11/2016 19:59:29 76.24,-119.20 54.21 07/11/2016 19:58:20 76.24,-119.22 54.22 0.83 69
2 07/11/2016 20:50:11 -76.23, 48.10 125.80 07/11/2016 20:49:15 -76.24, 48.08 125.79 0.90 56
3 07/11/2016 21:40:51 76.22,-144.61 54.20 07/11/2016 21:40:21 76.20,-144.56 54.18 2.56 30
4 07/11/2016 22:31:33 -76.21, 22.69 125.81 07/11/2016 22:31:16 -76.19, 22.74 125.83 2.51 17
5 07/11/2016 23:22:13 76.20,-170.02 54.19 07/11/2016 23:22:23 76.20,-170.06 54.19 1.09 10
6 07/12/2016 00:12:55 -76.19, -2.72 125.82 07/12/2016 00:13:18 -76.19, -2.76 125.82 1.18 23
7 07/12/2016 01:03:35 76.18, 164.57 54.18 07/12/2016 01:04:24 76.15, 164.60 54.15 2.92 49
8 07/12/2016 01:54:17 -76.17, -28.13 125.83 07/12/2016 01:55:19 -76.15, -28.10 125.85 3.00 62
9 07/22/2016 11:04:33 76.55, 15.61 56.34 07/22/2016 11:03:23 76.53, 13.69 56.33 49.71 70
10 07/22/2016 11:55:21 -76.29,-178.02 123.92 07/22/2016 11:54:14 -76.26,-178.03 123.94 2.58 67
11 07/22/2016 12:46:01 76.26, -10.79 56.06 07/22/2016 12:45:19 76.26, -10.79 56.07 0.76 42
12 07/22/2016 13:36:43 -76.27, 156.57 123.92 07/22/2016 13:36:16 -76.26, 156.47 123.92 2.78 27
13 07/22/2016 14:27:23 76.24, -36.20
